User: anonymous
Location: Unspecified
(0.0000°N, 0.0000°E)
Time: 11:59:46
(UTC+00:00)
Language:

GSAT 7 - Orbit

View from above orbital plane
View from above orbital plane
View from above satellite
View from above satellite

Ground track
Ground track

The orbit data is extracted from the following two-line orbital elements,

1 39234U 13044B   14240.53253206  .00000000  00000-0  10000-3 0  3112
2 39234 000.0589 264.6674 0007089 353.7644 343.9348 01.00269620  3672
Epoch (UTC): 28 August 2014 12:46:50
Eccentricity: 0.0007089
inclination: 0.0589°
perigee height: 35757 km
apogee height: 35817 km
right ascension of ascending node: 264.6674°
argument of perigee: 353.7644°
revolutions per day: 1.00269620
mean anomaly at epoch: 343.9348°
orbit number at epoch: 367

The dashed part of the orbit path shows where the satellite is in the earth's shadow,  

DLR